Theta_e
341 339 338 341 342 340 340 340 340 339 339 341 340 339 339 342 342 340 340 341 341 341 342 342 343 343 344 344 344 342 341 341 340 340 339 338 336 335 334 334 335 335
338 339 339 339 340 340 341 340 339 340 339 340 341 343 342 340 342 341 339 339 339 340 340 342 342 341 341 342 341 341 340 340 339 340 337 337 335 334 334 334 334 337
337 338 338 336 338 337 339 340 339 338 338 340 341 342 339 340 341 340 339 339 338 339 339 340 340 339 339 340 338 338 338 338 337 339 337 336 336 334 334 334 334 336
336 336 337 337 337 336 338 339 340 338 338 337 337 339 339 341 340 340 340 338 337 337 337 336 336 337 336 337 337 336 336 337 336 337 337 336 336 335 334 334 335 336
334 335 336 337 337 336 337 335 334 336 336 337 338 338 338 337 339 338 339 339 337 336 335 335 334 335 336 336 335 333 333 335 336 336 335 334 335 334 334 334 333 334
334 330 331 332 336 336 336 335 336 335 333 335 337 338 338 339 337 337 338 337 338 336 334 335 334 335 335 335 336 333 333 333 335 336 334 333 333 334 334 333 333 333
332 333 333 333 334 335 334 336 336 336 336 336 335 335 336 336 336 334 335 336 337 335 333 332 333 332 333 335 334 333 332 332 333 336 335 334 333 333 333 332 332 333
330 332 332 332 332 333 333 333 335 335 336 337 335 336 336 333 332 335 336 335 334 335 334 333 332 332 332 333 334 334 334 335 335 336 334 333 332 331 331 332 331 331
330 330 331 331 330 331 331 331 332 333 334 333 333 333 334 333 334 334 332 332 333 334 334 334 334 332 333 332 331 331 332 333 334 334 334 333 331 330 330 330 330 331
328 330 329 330 329 330 329 330 331 333 332 332 331 333 331 336 333 331 333 333 333 332 333 333 333 336 333 331 331 329 329 330 332 333 334 334 333 331 331 330 329 330
327 327 328 328 328 330 329 329 330 330 331 328 330 329 328 329 330 330 330 330 331 331 332 332 333 333 333 331 331 331 329 327 329 331 331 331 332 333 334 331 330 329
328 328 327 328 327 328 328 328 329 328 328 330 327 326 326 328 327 327 327 326 326 326 328 329 331 332 333 332 331 331 329 330 330 329 329 329 331 333 333 332 331 329
326 326 326 326 327 327 328 327 327 328 326 325 326 324 324 324 324 323 324 325 325 325 323 323 324 326 330 331 331 330 330 329 329 329 330 332 331 331 332 332 332 333
327 326 325 326 326 326 326 327 326 326 325 326 325 324 323 322 322 322 323 323 322 321 320 320 320 322 321 318 317 320 330 332 329 329 329 330 331 331 332 332 333 333
324 322 324 325 324 324 326 324 324 327 325 325 324 325 324 322 321 321 320 320 319 318 317 317 318 318 317 312 310 315 322 328 331 329 330 328 327 328 331 330 330 333
323 324 323 324 323 323 325 327 322 324 325 324 322 323 323 322 320 320 319 318 317 316 315 315 314 313 311 304 302 308 316 323 329 333 334 330 330 330 328 328 327 324
320 320 322 319 322 322 320 320 321 323 322 323 323 324 323 321 320 318 318 317 316 315 313 313 312 311 302 296 297 298 311 321 327 331 332 330 330 329 327 324 322 320
320 318 317 319 319 317 318 318 318 317 316 317 319 323 321 321 320 318 317 317 316 314 313 312 311 307 296 296 297 296 301 316 324 327 330 331 330 330 327 322 319 318
317 316 316 318 318 318 322 317 320 316 317 316 317 321 322 319 318 318 316 316 314 313 313 312 309 303 295 296 297 297 297 307 322 327 328 329 330 327 324 321 320 321
316 315 315 316 317 319 322 318 316 316 316 317 320 317 319 318 318 316 315 314 314 313 313 312 310 303 295 295 296 296 299 307 326 327 328 327 327 326 323 321 322 320
314 314 314 316 318 316 319 316 316 316 317 317 317 316 318 315 315 315 315 314 313 313 312 311 310 298 294 294 295 296 300 309 321 322 321 320 323 323 323 322 321 320
315 315 318 315 315 317 315 313 315 316 315 315 316 317 317 318 315 316 314 313 312 312 311 309 309 297 294 294 294 294 302 316 316 317 318 318 318 318 320 320 320 321
314 314 317 315 316 315 311 314 313 313 315 316 313 315 316 316 314 315 314 314 313 311 309 307 308 300 293 293 294 293 305 317 316 314 314 314 316 318 319 320 320 319
314 312 313 313 313 311 313 312 314 316 313 313 314 315 316 315 314 314 314 312 312 310 308 306 307 303 293 293 294 293 303 317 315 314 313 313 312 313 313 315 319 320
314 314 313 312 311 316 315 312 313 314 313 314 317 315 317 314 313 312 311 313 312 310 308 306 306 304 295 292 293 293 301 313 316 313 312 312 312 311 311 310 309 310
314 313 314 315 313 316 316 312 312 313 314 313 313 312 312 312 312 312 312 311 312 311 309 308 307 306 300 292 293 294 294 307 317 314 311 311 313 312 310 309 308 307
Wind_Speed
1 1 2 2 2 2 3 3 3 3 3 3 3 4 4 2 4 5 5 4 4 4 5 5 4 6 6 6 6 6 7 8 6 6 7 7 7 7 8 8 7 8
1 1 2 2 2 2 2 3 3 3 4 3 2 2 2 3 4 4 4 5 5 6 6 5 2 2 4 5 4 5 5 6 7 5 6 8 8 7 8 8 8 8
1 2 2 2 1 2 2 1 2 4 4 4 3 2 3 4 3 4 5 5 5 6 6 5 3 3 3 4 5 5 5 6 6 5 7 8 8 7 8 8 7 9
2 2 1 2 2 2 2 1 2 2 3 3 3 4 4 4 3 4 5 7 5 6 5 5 5 4 5 4 4 5 6 7 8 9 8 7 7 8 8 8 7 8
2 2 2 2 2 2 2 3 3 3 4 3 3 4 4 5 5 6 5 4 5 5 5 5 5 6 6 6 7 7 7 7 8 8 9 10 9 9 9 8 8 9
2 3 3 3 2 2 2 2 1 2 5 6 4 3 3 4 5 6 5 5 5 5 5 5 6 6 6 7 7 7 6 7 9 10 12 12 10 9 8 9 9 11
2 2 3 2 2 2 3 2 2 1 1 2 3 3 3 4 5 7 7 5 7 7 6 6 6 7 6 6 7 8 8 9 9 11 12 11 10 10 10 10 10 11
2 2 2 2 3 2 3 3 2 2 2 1 2 2 2 3 6 5 5 6 6 6 7 6 7 8 8 7 6 8 10 8 10 11 12 12 10 11 11 9 10 11
1 2 2 2 3 3 3 3 3 3 2 2 2 3 3 4 5 4 6 7 5 6 7 6 7 9 8 8 9 9 9 9 9 10 10 11 12 13 13 12 12 12
1 2 2 2 3 3 3 3 3 2 2 2 3 3 4 1 4 5 5 4 6 8 8 8 7 2 4 8 8 8 9 11 9 9 10 9 10 12 12 12 11 11
1 1 1 3 3 2 3 3 3 3 2 4 3 4 4 4 3 4 4 5 5 6 7 6 4 4 5 6 8 8 10 10 9 8 7 9 10 10 9 10 12 11
2 2 2 2 3 3 3 3 2 3 3 2 4 4 3 3 3 5 5 6 6 7 8 8 8 7 5 7 9 8 10 9 8 10 10 11 10 9 9 8 7 11
1 2 3 3 3 3 3 3 2 3 4 4 4 4 4 4 5 6 6 8 8 8 9 10 10 10 9 8 3 8 12 11 10 10 12 10 10 10 6 5 5 6
1 2 2 2 2 3 3 2 3 2 3 2 3 3 4 6 6 7 7 7 9 8 8 8 8 8 8 8 8 8 7 9 11 10 12 10 10 8 7 8 9 7
1 1 1 2 3 2 1 2 3 2 2 2 2 2 3 5 6 7 8 8 8 8 9 8 7 7 6 8 9 8 6 8 6 8 11 9 10 13 9 4 1 3
2 0 1 2 2 3 1 0 2 1 1 2 2 2 2 3 5 6 7 7 7 7 7 7 6 5 9 15 12 8 7 7 7 8 9 9 11 9 8 7 6 2
2 2 2 3 3 1 0 3 2 2 2 1 2 1 2 3 4 5 5 6 6 7 7 5 5 5 12 13 14 13 7 6 7 8 10 8 8 11 8 9 8 7
2 3 3 3 3 4 3 2 4 3 4 4 3 1 3 2 3 4 4 5 4 5 5 5 5 8 14 14 14 14 8 6 7 7 7 8 10 11 8 10 9 8
2 4 3 2 3 2 1 1 1 3 2 3 4 2 0 2 3 3 3 4 4 5 4 4 4 8 13 14 14 14 10 6 7 7 8 11 9 8 10 11 10 9
2 3 3 3 3 2 1 2 2 2 3 3 2 3 2 3 4 4 4 4 4 4 4 3 4 8 13 14 14 14 12 7 3 2 4 5 8 9 12 12 11 9
3 4 4 2 1 3 2 2 2 2 2 2 3 4 1 4 3 2 2 2 3 3 3 3 3 9 12 14 14 14 14 8 6 3 6 5 5 5 6 11 11 10
3 2 2 3 2 2 2 3 2 2 2 4 3 2 3 2 4 1 1 1 2 2 2 3 3 8 12 13 13 14 13 7 8 7 5 6 7 7 2 4 10 9
4 3 1 2 2 2 3 2 5 4 3 2 5 4 5 2 3 1 1 0 1 1 2 2 3 6 10 11 12 14 10 6 7 8 7 7 6 5 5 3 6 7
4 3 3 0 3 3 3 6 2 1 2 5 2 3 2 2 2 1 1 1 1 2 3 2 4 5 9 9 11 13 10 6 5 6 6 6 6 6 6 5 8 14
4 3 1 1 2 1 1 4 2 1 3 4 1 2 1 1 3 3 2 1 1 1 2 2 3 3 8 8 9 11 9 5 4 4 6 5 5 6 6 6 8 10
6 5 3 2 2 1 1 4 3 1 2 2 3 4 3 4 3 2 1 1 1 1 1 2 2 1 5 8 8 9 10 5 1 4 5 3 4 4 5 5 7 7
Wind_Direction
274 316 296 280 273 278 287 280 276 266 259 252 209 233 230 251 206 206 217 214 211 222 236 242 207 189 191 186 185 195 194 196 198 197 204 207 224 227 229 236 244 251
292 263 249 277 295 304 336 323 297 275 275 269 253 222 223 229 222 217 219 221 220 224 226 228 140 163 176 168 167 195 205 195 204 196 208 217 223 230 239 239 243 249
291 308 303 299 302 299 288 233 310 305 298 284 274 274 257 239 218 200 211 207 207 212 218 221 212 175 196 184 179 200 209 203 205 206 217 224 220 224 237 241 241 246
295 295 312 318 314 310 315 295 253 266 265 281 304 280 261 255 231 227 210 204 201 203 193 197 213 196 196 206 192 202 210 210 211 211 216 227 227 229 235 238 242 242
323 329 314 301 337 354 347 323 322 294 272 254 223 234 243 257 250 244 228 202 202 204 198 209 208 209 199 203 204 208 212 219 220 212 211 219 223 224 234 236 236 244
298 317 326 328 332 338 331 322 304 336 335 326 317 274 255 251 252 243 229 220 216 209 202 208 218 209 206 210 204 215 206 215 219 216 215 218 221 220 227 229 229 236
336 321 304 294 299 315 309 305 324 81 251 290 308 314 312 305 285 274 263 229 209 221 212 203 203 208 208 216 216 221 217 226 227 218 218 219 219 223 226 230 232 231
278 298 297 297 302 308 303 313 336 341 336 292 318 295 307 294 305 319 316 306 290 245 216 216 214 209 194 193 212 223 224 217 226 222 220 224 219 225 229 231 231 233
298 293 305 302 301 299 298 317 346 347 341 347 341 348 342 340 315 314 316 313 300 289 276 234 216 222 212 192 200 211 223 224 221 228 228 224 224 224 226 230 232 228
356 313 305 313 303 309 309 326 328 323 342 339 356 353 334 51 294 312 294 299 307 312 307 306 296 349 225 227 226 205 206 221 226 225 233 238 236 234 231 234 239 230
223 236 286 302 297 284 295 307 313 328 329 347 1 352 9 346 347 346 335 329 321 301 293 293 288 250 179 207 227 229 237 227 220 227 229 242 242 245 254 251 245 238
284 291 283 285 301 320 321 325 320 319 343 5 8 1 358 352 348 351 343 331 328 331 332 329 326 317 296 178 191 210 229 250 247 232 224 228 241 245 241 246 284 284
356 326 350 352 340 328 319 295 314 353 340 7 8 2 353 359 3 358 350 338 346 0 357 352 347 339 337 344 290 222 208 212 217 230 245 239 231 233 244 252 252 247
344 4 10 344 345 302 288 335 350 348 7 351 348 352 13 1 6 358 352 0 7 2 355 347 340 338 348 349 344 332 289 221 211 216 234 228 239 244 239 240 238 213
6 209 65 321 273 291 337 24 352 349 336 347 331 352 32 14 8 360 357 5 5 1 351 344 338 347 354 347 327 314 311 302 262 229 227 203 218 230 213 158 9 283
269 4 220 230 270 258 260 174 229 201 117 352 323 360 20 33 25 355 1 3 3 358 355 347 346 345 340 330 314 292 298 289 281 243 218 209 213 209 171 166 148 181
255 254 261 267 260 254 88 261 285 35 27 313 321 66 69 54 31 3 7 14 359 356 1 355 348 344 338 328 322 299 280 273 264 256 230 214 221 223 188 152 147 143
265 260 268 288 309 305 296 353 10 10 345 335 333 10 68 72 55 26 8 10 360 356 9 0 347 350 341 332 324 308 292 264 250 248 250 219 213 211 172 155 149 150
255 266 269 259 267 293 334 44 313 307 321 335 333 9 94 64 60 38 20 9 349 347 6 9 351 347 339 330 327 319 316 287 242 249 235 227 211 183 153 152 152 157
235 265 276 272 254 239 265 17 8 348 5 330 325 326 292 93 64 54 50 7 339 340 350 11 356 347 337 332 333 329 335 344 286 252 257 199 175 169 155 152 150 145
269 255 253 270 356 33 33 339 351 29 322 283 289 258 96 86 88 83 49 336 337 344 335 357 354 353 343 337 340 340 339 8 8 37 78 42 80 113 150 144 139 139
231 239 265 268 290 346 5 341 31 35 356 345 314 308 104 116 101 98 245 330 13 341 329 334 334 3 350 343 345 348 344 27 26 23 33 84 87 79 32 132 128 131
228 242 360 9 1 359 342 11 47 13 330 220 255 250 138 141 122 169 148 302 16 354 347 326 318 1 353 351 346 355 351 30 33 41 33 33 40 66 68 56 88 105
227 239 234 307 357 347 41 63 46 18 308 297 307 307 100 96 150 169 63 24 10 342 358 330 312 4 359 357 352 357 350 30 28 46 51 29 38 40 54 58 87 96
177 159 37 61 267 278 99 113 79 351 328 314 5 309 61 204 234 156 132 160 77 59 339 327 322 342 354 352 2 359 1 346 40 56 58 39 35 47 42 54 55 53
112 119 167 210 284 9 56 114 118 82 284 312 320 283 229 218 205 121 126 102 124 161 210 324 323 337 348 342 5 359 4 345 346 78 79 75 57 68 67 62 65 66